Probability
13 13 16 23 26 29 26 29 32 26 26 26 10 16 23 23 19 13 19 13 16 23 16 23 16 19 19 19 16 10 10 10 10 6 3 3 0 3 6 3 3 3 0
13 19 23 23 29 29 26 32 29 29 26 29 23 16 26 23 26 23 23 19 23 16 32 26 19 19 19 13 10 16 10 10 6 10 3 0 0 0 0 0 3 3 3
10 16 23 26 29 39 35 35 35 29 35 35 35 39 26 26 29 26 23 23 26 26 26 16 19 23 16 13 13 16 13 6 10 6 0 0 0 0 0 0 3 0 0
13 16 19 26 26 35 42 26 35 35 42 42 39 32 32 29 32 29 26 29 29 35 29 29 23 26 26 29 29 16 13 10 13 6 6 3 0 3 3 0 0 3 0
16 13 19 26 29 35 39 32 32 35 48 45 39 35 35 39 35 45 35 29 35 35 32 35 29 29 26 29 29 26 16 16 16 13 6 6 3 3 3 3 3 0 0
10 13 23 23 26 35 35 45 39 39 48 39 39 39 39 42 42 35 35 35 35 42 39 35 32 32 29 29 23 23 26 23 19 10 10 6 10 6 3 3 3 3 0
13 13 19 19 29 32 35 42 39 45 45 45 42 35 35 45 45 35 35 35 42 42 39 39 32 32 32 35 32 29 32 29 19 16 16 13 10 10 6 3 3 3 3
6 13 16 23 26 29 35 42 35 39 39 42 42 39 45 39 35 39 32 35 39 42 45 35 39 35 39 39 39 32 39 32 19 23 19 16 16 13 6 10 10 3 3
6 6 6 16 19 19 29 39 39 42 39 42 39 42 39 39 42 35 32 32 32 32 42 42 39 32 42 39 35 39 29 23 23 29 26 13 13 16 13 6 6 10 6
10 6 6 13 10 13 19 35 32 42 42 45 42 45 35 39 35 39 32 32 29 32 35 45 42 42 42 42 32 32 29 23 19 26 23 23 26 19 19 16 16 16 16
6 10 6 3 0 16 19 29 32 32 35 35 32 32 39 35 39 35 35 29 32 35 35 42 42 35 32 39 35 32 29 29 26 29 26 26 29 29 23 19 16 16 16
10 10 3 3 6 16 23 26 29 32 35 32 29 29 29 32 29 39 35 26 26 29 29 35 32 32 29 26 35 32 32 26 26 26 26 23 26 26 23 26 26 26 19
10 3 6 6 13 19 16 16 23 35 35 35 29 29 26 26 26 29 29 19 16 23 26 29 26 26 26 19 16 26 26 19 19 23 23 19 23 23 19 19 16 16 16
10 3 0 6 10 13 13 16 23 23 29 29 26 26 23 23 26 23 23 23 23 16 23 26 26 26 26 26 26 26 29 26 23 13 19 23 23 26 23 19 10 10 10
13 10 3 6 10 10 13 16 19 23 26 26 23 19 19 23 23 19 16 16 19 23 23 26 26 26 26 23 23 23 26 23 19 16 16 16 13 16 13 10 10 6 6
13 13 13 16 13 13 16 13 23 26 26 19 19 16 19 23 26 23 16 19 23 23 23 26 26 26 23 23 23 23 26 26 26 16 16 13 13 16 10 10 10 6 6
13 13 10 13 13 13 16 23 19 19 16 16 16 13 19 23 26 26 23 23 19 23 23 23 23 23 23 23 19 16 23 23 26 23 16 16 13 13 13 13 10 10 10
16 13 13 13 13 16 16 19 16 19 16 16 16 13 16 26 26 26 26 23 23 23 23 16 19 19 19 23 19 16 13 19 23 19 19 16 16 19 10 13 13 6 6
13 16 16 16 16 16 13 10 16 19 16 6 16 16 16 19 19 19 23 19 19 19 19 19 16 16 23 23 13 10 13 13 16 23 19 19 16 16 10 10 13 10 10
13 16 16 16 19 10 10 13 13 13 16 13 16 16 13 13 16 16 19 19 19 19 19 13 13 16 19 23 13 6 13 13 13 13 16 13 10 10 6 10 10 13 10
16 13 13 6 13 16 10 16 10 10 10 13 10 10 10 16 19 16 16 16 13 13 13 13 13 13 16 16 13 3 13 13 13 13 13 10 6 6 0 0 10 13 10
13 13 10 6 6 10 13 10 10 10 6 10 10 10 10 10 10 13 13 10 10 10 13 13 13 13 13 16 10 6 0 10 10 13 13 10 6 0 0 0 3 3 3
13 10 10 10 10 10 10 10 13 10 6 10 10 10 6 6 10 10 6 6 10 10 10 13 13 13 13 16 13 6 0 0 6 13 13 10 6 0 0 0 0 0 3
6 6 6 6 6 10 10 6 6 6 10 6 6 6 6 6 6 6 6 6 10 6 6 6 13 13 13 13 13 10 6 0 0 6 6 3 0 0 3 3 0 0 3
6 6 6 6 6 3 3 3 3 3 3 3 6 6 6 6 6 6 6 6 6 6 6 10 10 6 10 10 6 13 10 6 6 6 6 6 0 0 0 0 3 3 3
6 3 3 3 3 3 3 3 3 3 3 3 6 6 6 6 6 10 6 3 6 6 6 6 6 6 6 6 3 0 6 3 3 0 6 6 6 6 6 3 3 3 3
Height
5913 5912 5911 5911 5910 5910 5909 5908 5907 5906 5905 5904 5903 5902 5900 5899 5898 5897 5896 5896 5895 5894 5893 5893 5892 5891 5890 5889 5888 5887 5886 5885 5884 5884 5883 5882 5881 5880 5879 5878 5877 5876 5875
5913 5913 5912 5911 5911 5910 5909 5908 5907 5906 5905 5904 5903 5902 5901 5899 5898 5897 5896 5895 5895 5894 5893 5892 5891 5890 5889 5889 5888 5887 5886 5885 5884 5883 5882 5881 5881 5879 5878 5877 5876 5875 5874
5914 5913 5912 5911 5911 5910 5909 5908 5907 5906 5905 5904 5903 5902 5900 5899 5898 5897 5896 5895 5894 5893 5892 5891 5890 5889 5889 5888 5887 5886 5885 5884 5883 5882 5881 5880 5879 5878 5877 5876 5875 5874 5872
5913 5912 5912 5911 5910 5909 5908 5907 5906 5906 5905 5903 5902 5901 5900 5899 5898 5897 5896 5894 5893 5892 5892 5890 5889 5888 5888 5887 5886 5885 5884 5883 5882 5881 5880 5879 5877 5876 5876 5875 5873 5872 5871
5912 5911 5911 5910 5909 5908 5907 5906 5905 5904 5903 5903 5901 5900 5899 5898 5897 5896 5895 5893 5892 5891 5890 5889 5888 5887 5886 5885 5884 5883 5882 5881 5881 5879 5878 5877 5876 5875 5874 5872 5871 5870 5868
5910 5910 5909 5908 5907 5906 5906 5904 5904 5903 5902 5901 5900 5899 5898 5897 5896 5894 5893 5892 5891 5890 5889 5888 5886 5885 5884 5883 5882 5881 5880 5879 5878 5877 5876 5875 5874 5873 5871 5870 5869 5867 5866
5908 5907 5906 5906 5905 5904 5903 5903 5902 5901 5900 5900 5899 5897 5896 5895 5894 5893 5892 5890 5889 5888 5887 5885 5884 5883 5881 5881 5880 5879 5878 5876 5875 5874 5873 5872 5871 5870 5869 5867 5866 5864 5862
5906 5905 5904 5903 5903 5903 5902 5901 5900 5899 5898 5897 5896 5895 5894 5893 5891 5890 5889 5888 5887 5885 5883 5882 5881 5880 5879 5878 5877 5876 5875 5873 5872 5871 5870 5869 5868 5866 5865 5863 5862 5860 5859
5903 5902 5901 5900 5900 5900 5899 5898 5897 5897 5896 5894 5893 5892 5891 5889 5888 5887 5886 5885 5883 5882 5880 5879 5878 5876 5875 5874 5873 5872 5871 5870 5869 5867 5866 5865 5863 5862 5861 5859 5858 5856 5854
5899 5898 5897 5896 5896 5896 5896 5895 5894 5893 5893 5891 5889 5888 5887 5885 5885 5883 5882 5881 5880 5878 5877 5875 5874 5872 5871 5870 5869 5868 5867 5865 5864 5863 5862 5861 5859 5857 5856 5854 5853 5851 5849
5896 5896 5894 5893 5892 5892 5892 5892 5891 5890 5889 5887 5886 5884 5883 5882 5881 5879 5878 5877 5875 5874 5872 5871 5869 5868 5867 5865 5864 5863 5862 5861 5859 5858 5857 5855 5854 5853 5851 5849 5848 5846 5844
5892 5892 5892 5890 5889 5888 5888 5887 5886 5885 5884 5883 5881 5880 5879 5878 5877 5875 5874 5872 5871 5869 5867 5866 5865 5863 5862 5861 5859 5858 5857 5856 5854 5853 5852 5850 5849 5847 5846 5844 5842 5840 5838
5888 5887 5887 5885 5884 5883 5883 5882 5881 5880 5879 5878 5877 5875 5874 5873 5872 5871 5869 5867 5866 5864 5862 5861 5860 5858 5857 5855 5854 5853 5851 5850 5849 5847 5846 5845 5843 5842 5840 5838 5836 5834 5832
5883 5882 5881 5880 5879 5878 5878 5877 5876 5875 5874 5873 5872 5871 5870 5868 5867 5866 5864 5862 5860 5858 5857 5856 5854 5853 5851 5850 5848 5847 5846 5844 5843 5841 5840 5838 5837 5835 5833 5832 5830 5828 5826
5877 5876 5875 5874 5874 5873 5872 5871 5870 5870 5869 5868 5866 5865 5864 5863 5861 5860 5858 5856 5855 5853 5851 5850 5848 5847 5845 5844 5842 5840 5839 5838 5836 5835 5833 5831 5829 5828 5826 5825 5823 5821 5819
5871 5871 5870 5869 5869 5868 5867 5866 5865 5864 5863 5862 5861 5859 5858 5857 5855 5854 5852 5850 5848 5846 5845 5843 5841 5840 5838 5837 5835 5833 5832 5831 5829 5828 5826 5824 5822 5820 5819 5817 5815 5814 5812
5866 5865 5865 5864 5863 5862 5861 5860 5859 5858 5857 5856 5854 5853 5852 5850 5849 5847 5845 5844 5842 5839 5838 5836 5834 5833 5831 5829 5827 5826 5824 5823 5821 5820 5818 5816 5814 5812 5811 5809 5807 5806 5804
5860 5860 5859 5858 5857 5855 5854 5853 5853 5852 5851 5849 5848 5846 5845 5843 5842 5840 5838 5837 5835 5832 5831 5829 5827 5825 5823 5821 5819 5817 5816 5814 5813 5811 5810 5808 5806 5804 5802 5801 5799 5797 5795
5855 5854 5853 5851 5850 5849 5847 5846 5845 5845 5844 5842 5841 5839 5838 5836 5834 5832 5830 5829 5827 5825 5823 5821 5818 5816 5815 5812 5811 5809 5807 5806 5804 5802 5801 5799 5798 5796 5794 5793 5791 5789 5787
5848 5847 5846 5845 5843 5841 5840 5839 5838 5837 5836 5835 5833 5831 5830 5828 5826 5824 5823 5821 5819 5817 5815 5812 5810 5808 5806 5804 5802 5800 5799 5797 5795 5794 5792 5790 5789 5787 5785 5784 5782 5780 5779
5840 5839 5838 5838 5836 5835 5833 5831 5830 5829 5827 5826 5825 5824 5822 5820 5818 5816 5814 5812 5810 5808 5806 5804 5802 5800 5798 5795 5793 5791 5789 5787 5785 5784 5783 5781 5780 5778 5776 5774 5773 5771 5769
5833 5832 5831 5829 5828 5826 5824 5823 5821 5820 5818 5817 5816 5815 5813 5811 5809 5807 5805 5804 5802 5800 5798 5796 5793 5791 5789 5787 5784 5782 5780 5778 5776 5775 5774 5772 5770 5769 5767 5765 5763 5761 5759
5825 5824 5822 5821 5819 5817 5816 5814 5813 5811 5810 5808 5807 5805 5804 5802 5800 5798 5797 5795 5793 5791 5789 5787 5784 5782 5780 5778 5776 5773 5772 5769 5768 5766 5764 5763 5761 5759 5757 5755 5753 5752 5750
5817 5815 5814 5812 5810 5808 5806 5804 5802 5801 5800 5799 5798 5796 5795 5793 5791 5789 5787 5786 5784 5782 5780 5778 5776 5774 5772 5770 5767 5765 5763 5761 5759 5757 5755 5753 5752 5750 5748 5746 5744 5742 5740
5808 5806 5805 5803 5801 5799 5797 5795 5793 5791 5791 5789 5788 5787 5785 5783 5782 5780 5778 5777 5775 5773 5771 5769 5767 5765 5763 5762 5759 5756 5755 5753 5751 5749 5747 5745 5743 5741 5739 5737 5735 5733 5731
5799 5797 5795 5794 5792 5790 5788 5785 5784 5782 5781 5780 5778 5777 5775 5774 5772 5771 5770 5767 5766 5764 5762 5760 5758 5756 5754 5752 5750 5747 5745 5744 5742 5740 5738 5736 5734 5733 5731 5729 5727 5725 5722
Wind_Speed
8 7 7 7 7 7 7 8 8 8 8 8 8 8 8 7 7 6 6 6 6 6 5 5 5 6 6 6 6 5 5 5 4 4 4 4 3 4 3 3 3 4 4
7 6 5 6 6 7 7 7 6 7 7 8 7 7 7 7 6 6 6 5 5 5 5 5 5 5 5 6 6 6 5 4 4 4 4 4 4 4 4 3 4 5 6
6 5 5 5 6 7 7 6 6 6 6 7 8 7 7 6 6 6 6 5 5 4 5 5 4 4 4 5 5 5 5 5 5 5 5 4 4 5 5 5 5 6 7
6 5 5 5 6 6 6 6 5 5 6 6 7 6 7 6 5 5 6 6 5 5 5 5 4 4 4 4 4 5 5 5 6 6 5 5 5 6 5 5 6 7 8
7 6 6 6 6 6 6 6 5 5 5 5 6 6 6 6 6 6 5 5 5 5 5 6 5 4 4 4 5 5 5 6 6 6 6 6 6 6 6 7 7 8 9
8 8 7 7 7 7 7 7 6 6 6 6 6 6 6 6 7 6 6 6 6 6 7 7 6 6 6 6 6 6 6 7 7 7 7 8 8 8 9 9 10 10 11
9 9 8 8 7 7 7 7 8 8 7 7 7 7 7 7 8 8 7 7 8 8 8 8 8 8 7 7 8 8 9 9 9 8 9 9 10 10 10 11 12 12 13
9 10 10 8 7 8 8 8 9 9 8 9 9 9 9 9 9 9 9 9 9 10 10 9 10 10 9 9 10 10 10 10 10 10 11 11 12 12 13 13 14 14 15
10 11 11 9 8 9 9 9 9 10 10 10 10 11 11 11 10 11 11 11 11 11 11 11 11 11 11 11 12 12 12 12 12 13 13 14 14 14 15 15 16 16 15
10 11 11 10 9 10 11 11 11 11 11 11 12 12 12 12 11 11 11 11 11 11 12 12 12 12 12 13 13 14 14 14 14 15 15 15 15 15 16 17 18 18 18
13 13 12 11 10 11 12 12 13 13 13 13 14 13 12 13 12 13 13 13 13 13 13 14 14 14 14 14 15 15 15 15 15 16 16 16 16 17 18 18 19 19 19
14 14 14 12 12 12 13 14 14 14 14 14 15 14 14 14 14 14 14 14 15 15 15 16 16 16 16 16 16 17 16 17 17 17 18 18 18 18 19 19 20 20 21
16 17 16 14 13 13 14 15 16 16 16 16 16 16 16 16 16 17 17 17 16 17 16 17 17 17 17 17 17 17 17 18 18 18 19 19 19 20 20 20 21 21 21
19 19 17 16 15 15 16 17 18 18 17 17 17 17 17 17 18 18 19 20 20 19 18 18 18 18 18 18 18 18 18 19 19 20 21 21 21 21 21 21 22 22 22
19 19 18 17 16 17 17 18 19 19 19 19 18 17 18 18 19 20 21 21 21 21 20 20 20 21 20 20 19 19 20 21 21 21 22 22 22 22 22 23 23 23 23
19 20 19 18 18 18 18 19 20 20 20 20 20 19 19 19 20 21 22 22 22 22 22 22 21 22 22 22 21 22 22 22 22 23 23 23 23 24 24 23 24 24 24
20 20 19 19 19 20 20 20 21 21 21 21 21 21 21 22 23 22 22 23 23 23 23 23 23 23 23 24 24 24 24 24 24 25 25 25 25 25 25 25 25 25 26
22 22 22 22 22 23 23 22 23 23 23 23 23 23 23 24 24 24 23 23 23 23 23 24 25 25 25 26 26 26 26 26 26 27 27 27 27 26 26 27 27 27 27
24 24 24 25 24 24 24 24 24 25 25 25 25 25 25 25 25 25 24 25 25 25 25 25 25 24 25 26 26 26 27 27 27 27 27 27 27 28 28 28 28 28 28
26 25 25 25 25 25 25 26 26 26 26 27 27 27 27 27 27 27 27 27 26 26 26 27 26 25 25 26 26 27 28 28 29 28 28 28 28 29 29 29 29 29 29
27 27 27 27 28 28 28 29 28 28 28 27 28 28 27 28 28 28 28 28 28 27 27 28 26 26 26 27 27 28 29 29 29 29 29 29 30 30 31 31 31 30 29
29 28 28 29 29 30 30 30 30 30 30 30 29 29 28 28 28 28 28 28 28 27 28 27 27 26 26 26 27 28 28 28 28 28 29 30 30 31 31 32 31 31 30
30 30 30 30 31 31 31 31 31 31 32 32 31 30 30 30 30 29 28 28 28 28 28 28 27 26 25 25 26 26 27 27 28 28 29 30 31 31 32 31 31 31 30
31 31 31 32 32 32 33 32 32 32 32 32 31 31 31 30 30 30 29 29 29 29 28 27 27 26 26 26 26 26 27 28 28 28 29 30 30 30 30 30 30 31 30
32 32 32 32 32 32 32 31 31 32 32 32 32 32 32 32 32 31 31 31 29 29 29 29 29 28 27 27 27 27 27 28 29 29 29 29 29 29 29 30 30 30 30
32 33 33 33 33 32 32 31 31 31 32 33 32 32 32 32 32 32 32 32 31 31 30 31 30 29 28 28 28 28 29 29 29 29 28 28 29 29 29 30 30 30 30
Wind_Direction
28 25 28 32 33 33 31 30 38 37 36 36 36 35 33 33 34 34 36 33 31 30 31 31 33 35 33 31 29 33 35 34 31 25 15 358 343 337 335 347 340 331 318
21 16 20 27 23 20 18 19 21 26 26 25 26 26 24 23 22 19 17 17 14 12 17 19 18 19 19 19 18 19 23 21 8 1 356 355 339 329 328 326 317 318 317
359 1 0 15 13 10 8 4 6 9 13 15 14 17 19 17 16 14 10 7 3 2 8 9 9 10 9 6 3 3 4 1 358 350 344 341 340 320 312 315 311 313 317
339 339 342 357 2 359 354 350 350 356 359 2 5 6 4 3 3 0 356 354 354 355 356 355 352 353 354 351 350 353 344 344 344 345 343 337 334 325 320 315 309 307 306
326 325 331 327 330 332 330 328 331 336 342 344 343 345 343 342 341 341 339 343 341 338 337 337 332 329 333 329 326 328 328 326 325 328 328 327 323 317 312 310 304 304 304
318 317 321 313 307 311 312 316 315 320 324 328 328 328 326 325 326 323 319 319 320 321 320 321 321 317 317 316 315 313 316 314 313 314 315 316 317 316 311 308 304 302 301
318 318 315 306 296 300 301 310 309 307 307 310 312 314 314 317 318 314 309 306 306 308 311 310 312 311 311 310 311 310 309 305 304 303 305 305 306 308 308 307 304 303 304
310 314 312 301 294 296 295 303 302 301 298 301 301 301 300 304 307 305 302 300 301 300 302 304 307 305 302 300 302 303 304 303 302 301 301 300 301 302 305 303 302 300 299
302 306 306 295 291 296 296 299 299 300 298 295 293 291 289 289 294 295 293 292 294 298 301 304 302 299 295 293 295 295 295 295 295 296 297 298 298 298 300 300 299 299 298
298 301 302 294 294 296 293 292 292 292 293 291 289 289 287 287 289 290 289 289 288 289 292 295 296 296 294 293 291 292 290 287 289 292 293 294 296 295 295 294 297 301 300
288 292 291 290 290 292 291 291 291 291 290 287 287 284 285 286 287 286 286 287 288 285 287 290 292 292 291 291 291 289 289 287 288 290 291 293 292 290 294 296 298 300 302
282 286 283 280 284 288 290 291 292 291 290 287 288 282 285 285 286 287 289 288 289 286 285 287 287 289 289 290 289 288 287 286 287 288 288 288 287 289 292 294 295 296 298
285 285 281 277 281 287 289 291 289 289 286 286 287 286 287 286 286 289 288 288 287 287 287 287 287 289 291 290 290 289 288 287 287 287 287 288 289 290 290 292 293 294 297
289 285 281 282 286 288 290 290 288 285 285 285 286 287 286 287 289 291 291 292 288 285 288 288 289 289 290 290 289 288 288 287 287 287 287 287 288 289 289 289 290 292 293
289 286 283 283 283 286 289 290 289 288 286 287 288 286 283 285 287 288 290 292 292 288 285 286 286 287 288 290 289 288 288 287 286 286 286 286 286 286 286 287 288 289 291
291 288 284 285 285 285 286 286 288 290 290 289 287 285 286 287 288 288 289 291 291 289 284 283 283 284 286 288 288 287 287 286 286 286 286 287 287 287 286 286 287 288 289
291 290 283 281 284 287 286 286 288 288 288 290 290 291 289 289 289 289 287 289 290 289 287 285 283 283 284 286 286 286 285 284 285 285 286 286 287 287 287 287 287 287 288
287 286 282 281 282 283 285 285 285 286 286 287 288 288 289 288 287 289 289 288 289 290 290 288 285 284 284 284 284 284 283 283 283 283 283 284 285 286 287 287 288 288 288
287 287 285 283 285 285 283 281 282 284 284 285 286 286 287 287 287 290 290 289 288 287 287 289 287 285 285 285 285 285 284 284 283 282 283 284 285 285 286 287 288 287 287
286 286 284 283 284 283 282 283 282 282 283 284 286 287 288 288 287 288 288 288 289 287 287 289 288 284 285 286 285 285 284 283 282 282 282 282 283 284 286 286 286 287 287
285 285 284 284 286 286 285 283 282 282 283 284 286 286 286 289 289 289 287 287 287 286 286 288 289 287 285 285 286 286 284 283 281 280 280 281 283 284 286 286 286 286 286
283 284 285 286 286 286 284 283 283 282 282 283 284 284 285 287 288 288 287 286 286 284 286 287 288 287 285 284 284 284 284 282 281 280 281 281 282 283 284 285 286 286 286
282 283 285 286 286 285 284 283 282 282 283 284 285 285 284 286 287 287 286 286 286 285 285 286 287 288 289 288 287 287 287 285 283 282 282 283 283 283 284 285 286 286 286
282 283 284 285 285 285 284 284 282 281 282 282 282 281 281 283 285 287 288 287 285 284 284 286 290 290 290 289 288 289 289 288 286 285 285 285 285 285 284 284 286 287 287
283 284 285 285 285 285 284 284 281 280 279 280 281 280 279 281 283 285 288 287 284 284 283 286 289 290 290 289 287 288 288 288 288 287 288 287 287 286 285 285 285 286 287
284 285 286 287 286 286 284 283 282 280 280 281 280 279 279 280 282 283 284 285 284 284 285 287 288 288 287 285 285 286 285 286 287 287 287 287 287 286 285 284 285 286 287